Vacaville, CA

11:50 AM PST on February 23, 2017 (GMT -0800)
Nut Tree

Weather History for KVCB - July, 2014

Change the Weather History Date:

Wednesday, July 23, 2014

  Actual Average Record
Temperature  
Mean Temperature 74 °F -  
Max Temperature 90 °F 94 °F 114 °F (2006)
Min Temperature 59 °F 57 °F 48 °F (1973)
Cooling Degree Days 9    
Growing Degree Days 24 (Base 50)    
Moisture  
Dew Point 55 °F    
Average Humidity 54    
Maximum Humidity 81    
Minimum Humidity 31    
Precipitation  
Precipitation 0.00 in - - ()
Sea Level Pressure  
Sea Level Pressure 30.05 in    
Wind  
Wind Speed 6 mph (SW)    
Max Wind Speed 10 mph    
Max Gust Speed 21 mph    
Visibility 10 miles    
Events      
Averages and records for this station are not official NWS values.
T = Trace of Precipitation, MM = Missing Value Source: NWS Daily Summary

Daily Weather History Graph

Daily Weather History Graph

Search for Another Location

Airport or City:

Trip Planner

Search our weather history database for the weather conditions in past years. The results will help you decide how hot, cold, wet, or windy it might be!

Date:

Astronomy

Jul. 23, 2014 Rise Set
Actual Time 6:02 AM PDT 8:25 PM PDT
Civil Twilight 5:32 AM PDT 8:55 PM PDT
Nautical Twilight 4:55 AM PDT 9:32 PM PDT
Astronomical Twilight 4:13 AM PDT 10:13 PM PDT
Moon 3:25 AM PDT 5:59 PM PDT
Length of Visible Light 15h 23m
Length of Day
14h 23m
Waning Crescent, 9% of the Moon is Illuminated
Jul 23
Waning Crescent
Jul 26
New
Aug 3
First Quarter
Aug 10
Full
Aug 17
Last Quarter

Hourly Weather History & Observations

Time (PDT) Temp. Heat Index Dew Point Humidity Pressure Visibility Wind Dir Wind Speed Gust Speed Precip Events Conditions
12:53 AM 64.0 °F - 54.0 °F 70% 30.07 in 10.0 mi West 8.1 mph - N/A   Clear
1:53 AM 63.0 °F - 54.0 °F 72% 30.09 in 10.0 mi West 4.6 mph - N/A   Clear
2:53 AM 62.1 °F - 54.0 °F 75% 30.09 in 10.0 mi Calm Calm - N/A   Clear
3:53 AM 59.0 °F - 53.1 °F 81% 30.09 in 10.0 mi WNW 3.5 mph - N/A   Clear
4:53 AM 61.0 °F - 54.0 °F 78% 30.09 in 10.0 mi Calm Calm - N/A   Partly Cloudy
5:53 AM 61.0 °F - 54.0 °F 78% 30.10 in 10.0 mi South 6.9 mph - N/A   Clear
6:53 AM 63.0 °F - 55.0 °F 75% 30.10 in 10.0 mi SSW 6.9 mph - N/A   Clear
7:53 AM 68.0 °F - 54.0 °F 61% 30.11 in 10.0 mi Variable 3.5 mph - N/A   Clear
8:53 AM 71.1 °F - 51.1 °F 49% 30.12 in 10.0 mi West 4.6 mph - N/A   Clear
9:53 AM 73.9 °F - 51.1 °F 45% 30.12 in 10.0 mi Variable 3.5 mph - N/A   Clear
10:53 AM 78.1 °F - 52.0 °F 40% 30.12 in 10.0 mi North 4.6 mph - N/A   Clear
11:53 AM 80.1 °F 80.0 °F 54.0 °F 40% 30.10 in 10.0 mi Variable 5.8 mph - N/A   Clear
12:53 PM 82.0 °F 81.6 °F 55.9 °F 41% 30.08 in 10.0 mi Variable 5.8 mph - N/A   Clear
1:53 PM 84.9 °F 83.2 °F 53.1 °F 33% 30.06 in 10.0 mi Variable 3.5 mph - N/A   Clear
2:53 PM 87.1 °F 85.7 °F 55.9 °F 35% 30.04 in 10.0 mi South 9.2 mph - N/A   Clear
3:53 PM 87.1 °F 85.7 °F 55.9 °F 35% 30.01 in 10.0 mi SSW 9.2 mph - N/A   Clear
4:53 PM 89.1 °F 87.1 °F 55.0 °F 31% 30.00 in 10.0 mi SSW 9.2 mph - N/A   Clear
5:53 PM 84.0 °F 83.3 °F 57.0 °F 40% 29.99 in 10.0 mi SSW 10.4 mph 20.7 mph N/A   Clear
6:53 PM 82.9 °F 82.4 °F 57.0 °F 41% 29.98 in 10.0 mi SSW 10.4 mph 18.4 mph N/A   Clear
7:53 PM 80.1 °F 80.4 °F 57.0 °F 45% 29.97 in 10.0 mi SSW 8.1 mph - N/A   Clear
8:53 PM 75.9 °F - 57.0 °F 52% 29.97 in 10.0 mi SW 4.6 mph - N/A   Clear
9:53 PM 75.9 °F - 57.0 °F 52% 29.98 in 10.0 mi SSW 3.5 mph - N/A   Clear
10:53 PM 72.0 °F - 55.9 °F 57% 29.98 in 10.0 mi SW 4.6 mph - N/A   Clear
11:53 PM 70.0 °F - 55.9 °F 61% 29.99 in 10.0 mi SW 5.8 mph - N/A   Clear